• Em Portugal
  • Lista de países
  • Para 7 dias
  • Temperatura da água
  • Mapas de satélite
  • Mapa do tempo
  • Widgets de tempo
  • user-avatar
    Iniciar Sessão

    Previsão horária em Chrzastowo

    Hoje, 20 Outubro, Sábado

    Tempo Temperatura Precipitação Vento Pressão Humidade
    00:00 +9°C° 0 mm 1 m/s 754 mmHg 72%
    01:00 +9°C° 0 mm 1 m/s 754 mmHg 72%
    02:00 +9°C° 0 mm 1 m/s 754 mmHg 74%
    03:00 +9°C° 0 mm 1 m/s 754 mmHg 76%
    04:00 +9°C° 0 mm 1 m/s 754 mmHg 78%
    05:00 +9°C° 0 mm 1 m/s 754 mmHg 80%
    06:00 +7°C° 0 mm 2 m/s 754 mmHg 83%
    07:00 +7°C° 0 mm 2 m/s 755 mmHg 86%
    08:00 +8°C° 0 mm 2 m/s 755 mmHg 80%
    09:00 +9°C° 0 mm 2 m/s 755 mmHg 74%
    10:00 +11°C° 0 mm 3 m/s 755 mmHg 68%
    11:00 +11°C° 0.1 mm 3 m/s 755 mmHg 66%
    12:00 +11°C° 0.1 mm 3 m/s 755 mmHg 65%
    13:00 +11°C° 0.1 mm 3 m/s 755 mmHg 63%
    14:00 +11°C° 0.1 mm 3 m/s 755 mmHg 64%
    15:00 +10°C° 0.1 mm 3 m/s 755 mmHg 66%
    16:00 +10°C° 0.1 mm 3 m/s 755 mmHg 67%
    17:00 +9°C° 0 mm 3 m/s 755 mmHg 71%
    18:00 +9°C° 0 mm 2 m/s 755 mmHg 76%
    19:00 +8°C° 0 mm 2 m/s 755 mmHg 81%
    20:00 +8°C° 0 mm 2 m/s 755 mmHg 83%
    21:00 +7°C° 0 mm 2 m/s 755 mmHg 86%
    22:00 +7°C° 0 mm 2 m/s 756 mmHg 89%
    23:00 +7°C° 0 mm 2 m/s 756 mmHg 91%

    Amanhã, 21 Outubro, Domingo

    Tempo Temperatura Precipitação Vento Pressão Humidade
    00:00 +7°C° 0 mm 1 m/s 756 mmHg 93%
    01:00 +7°C° 0 mm 1 m/s 756 mmHg 95%
    02:00 +7°C° 0 mm 1 m/s 756 mmHg 95%
    03:00 +7°C° 0 mm 1 m/s 756 mmHg 95%
    04:00 +7°C° 0 mm 1 m/s 756 mmHg 96%
    05:00 +7°C° 0 mm 1 m/s 756 mmHg 96%
    06:00 +7°C° 0 mm 1 m/s 756 mmHg 96%
    07:00 +7°C° 0 mm 1 m/s 756 mmHg 96%
    08:00 +8°C° 0 mm 1 m/s 757 mmHg 89%
    09:00 +10°C° 0 mm 1 m/s 757 mmHg 83%
    10:00 +12°C° 0 mm 1 m/s 757 mmHg 76%
    11:00 +13°C° 0 mm 1 m/s 757 mmHg 71%
    12:00 +13°C° 0 mm 1 m/s 757 mmHg 66%
    13:00 +14°C° 0 mm 1 m/s 757 mmHg 60%
    14:00 +14°C° 0 mm 1 m/s 757 mmHg 62%
    15:00 +13°C° 0 mm 1 m/s 757 mmHg 64%
    16:00 +13°C° 0 mm 1 m/s 756 mmHg 66%
    17:00 +12°C° 0 mm 1 m/s 757 mmHg 71%
    18:00 +11°C° 0 mm 1 m/s 757 mmHg 75%
    19:00 +10°C° 0 mm 1 m/s 757 mmHg 80%
    20:00 +9°C° 0 mm 1 m/s 756 mmHg 82%
    21:00 +8°C° 0 mm 2 m/s 756 mmHg 84%
    22:00 +7°C° 0 mm 2 m/s 756 mmHg 87%
    23:00 +7°C° 0 mm 2 m/s 756 mmHg 88%

    Depois de amanhã, 22 Outubro, Segunda-feira

    Tempo Temperatura Precipitação Vento Pressão Humidade
    00:00 +7°C° 0 mm 2 m/s 756 mmHg 89%
    01:00 +7°C° 0 mm 2 m/s 756 mmHg 90%
    02:00 +6°C° 0 mm 2 m/s 755 mmHg 91%
    03:00 +5°C° 0 mm 3 m/s 755 mmHg 91%
    04:00 +5°C° 0 mm 3 m/s 755 mmHg 91%
    05:00 +5°C° 0 mm 3 m/s 754 mmHg 91%
    06:00 +5°C° 0 mm 3 m/s 754 mmHg 92%
    07:00 +4°C° 0 mm 3 m/s 754 mmHg 92%
    08:00 +7°C° 0 mm 3 m/s 754 mmHg 86%
    09:00 +7°C° 0 mm 4 m/s 754 mmHg 80%
    10:00 +8°C° 0 mm 4 m/s 754 mmHg 74%
    11:00 +8°C° 0.2 mm 4 m/s 754 mmHg 76%
    12:00 +8°C° 0.2 mm 4 m/s 753 mmHg 78%
    13:00 +8°C° 0.2 mm 4 m/s 753 mmHg 81%
    14:00 +8°C° 0.5 mm 4 m/s 753 mmHg 82%
    15:00 +8°C° 0.5 mm 4 m/s 753 mmHg 82%
    16:00 +8°C° 0.5 mm 4 m/s 753 mmHg 83%
    17:00 +7°C° 0.1 mm 4 m/s 753 mmHg 81%
    18:00 +8°C° 0.1 mm 3 m/s 753 mmHg 79%
    19:00 +8°C° 0.1 mm 3 m/s 754 mmHg 77%
    20:00 +7°C° 0 mm 3 m/s 754 mmHg 77%
    21:00 +7°C° 0 mm 3 m/s 754 mmHg 77%
    22:00 +5°C° 0 mm 3 m/s 754 mmHg 77%
    23:00 +5°C° 0 mm 3 m/s 754 mmHg 79%

    23 Outubro, Terça-feira

    Tempo Temperatura Precipitação Vento Pressão Humidade
    00:00 +4°C° 0 mm 3 m/s 754 mmHg 82%
    01:00 +4°C° 0 mm 3 m/s 754 mmHg 84%
    02:00 +4°C° 0 mm 3 m/s 754 mmHg 85%
    03:00 +4°C° 0 mm 3 m/s 753 mmHg 85%
    04:00 +4°C° 0 mm 3 m/s 753 mmHg 86%
    05:00 +4°C° 0 mm 4 m/s 752 mmHg 86%
    06:00 +4°C° 0 mm 4 m/s 752 mmHg 85%
    07:00 +4°C° 0 mm 4 m/s 751 mmHg 85%
    08:00 +3°C° 0.1 mm 5 m/s 750 mmHg 82%
    09:00 +4°C° 0.1 mm 6 m/s 749 mmHg 79%
    10:00 +5°C° 0.1 mm 7 m/s 748 mmHg 76%
    11:00 +5°C° 0.7 mm 8 m/s 747 mmHg 78%
    12:00 +5°C° 0.7 mm 8 m/s 746 mmHg 80%
    13:00 +5°C° 0.7 mm 9 m/s 744 mmHg 82%
    14:00 +5°C° 1.1 mm 9 m/s 743 mmHg 83%
    15:00 +5°C° 1.1 mm 9 m/s 741 mmHg 84%
    16:00 +6°C° 1.1 mm 9 m/s 740 mmHg 85%
    17:00 +6°C° 2 mm 9 m/s 738 mmHg 86%
    18:00 +7°C° 2 mm 9 m/s 737 mmHg 87%
    19:00 +7°C° 2 mm 9 m/s 735 mmHg 88%
    20:00 +8°C° 1.6 mm 9 m/s 735 mmHg 85%
    21:00 +8°C° 1.6 mm 9 m/s 734 mmHg 83%
    22:00 +10°C° 1.6 mm 9 m/s 733 mmHg 81%
    23:00 +8°C° 0.3 mm 9 m/s 733 mmHg 79%

    24 Outubro, Quarta-feira

    Tempo Temperatura Precipitação Vento Pressão Humidade
    00:00 +9°C° 0.3 mm 8 m/s 734 mmHg 77%
    01:00 +7°C° 0.3 mm 8 m/s 734 mmHg 74%
    02:00 +7°C° 0.2 mm 8 m/s 735 mmHg 71%
    03:00 +6°C° 0.2 mm 8 m/s 736 mmHg 68%
    04:00 +5°C° 0.2 mm 8 m/s 737 mmHg 65%
    05:00 +4°C° 0 mm 8 m/s 738 mmHg 63%
    06:00 +3°C° 0 mm 7 m/s 739 mmHg 62%
    07:00 +3°C° 0 mm 6 m/s 739 mmHg 60%
    08:00 +3°C° 0 mm 7 m/s 740 mmHg 57%
    09:00 +4°C° 0 mm 8 m/s 741 mmHg 53%
    10:00 +5°C° 0 mm 9 m/s 741 mmHg 50%
    11:00 +5°C° 0 mm 9 m/s 742 mmHg 49%
    12:00 +6°C° 0 mm 9 m/s 742 mmHg 47%
    13:00 +6°C° 0 mm 8 m/s 743 mmHg 46%
    14:00 +5°C° 0 mm 7 m/s 743 mmHg 48%
    15:00 +5°C° 0 mm 6 m/s 743 mmHg 49%
    16:00 +6°C° 0 mm 5 m/s 743 mmHg 51%
    17:00 +5°C° 0 mm 5 m/s 743 mmHg 53%
    18:00 +4°C° 0 mm 4 m/s 744 mmHg 55%
    19:00 +4°C° 0 mm 4 m/s 744 mmHg 58%
    20:00 +4°C° 0 mm 3 m/s 744 mmHg 60%
    21:00 +3°C° 0 mm 3 m/s 744 mmHg 62%
    22:00 +3°C° 0 mm 3 m/s 744 mmHg 64%
    23:00 +3°C° 0 mm 3 m/s 744 mmHg 66%

    25 Outubro, Quinta-feira

    Tempo Temperatura Precipitação Vento Pressão Humidade
    00:00 +2°C° 0 mm 3 m/s 744 mmHg 68%
    01:00 +2°C° 0 mm 3 m/s 744 mmHg 70%
    02:00 +2°C° 0 mm 3 m/s 743 mmHg 72%
    03:00 +3°C° 0 mm 3 m/s 743 mmHg 74%
    04:00 +3°C° 0 mm 3 m/s 743 mmHg 75%
    05:00 +4°C° 0.2 mm 3 m/s 743 mmHg 80%
    06:00 +5°C° 0.2 mm 3 m/s 742 mmHg 85%
    07:00 +5°C° 0.2 mm 3 m/s 742 mmHg 90%
    08:00 +7°C° 0.3 mm 4 m/s 742 mmHg 88%
    09:00 +8°C° 0.3 mm 5 m/s 742 mmHg 86%
    10:00 +9°C° 0.3 mm 7 m/s 741 mmHg 85%
    11:00 +9°C° 0.1 mm 7 m/s 741 mmHg 82%
    12:00 +9°C° 0.1 mm 7 m/s 741 mmHg 79%
    13:00 +9°C° 0.1 mm 7 m/s 741 mmHg 77%
    14:00 +9°C° 0.2 mm 7 m/s 740 mmHg 78%
    15:00 +9°C° 0.2 mm 7 m/s 740 mmHg 80%
    16:00 +9°C° 0.2 mm 7 m/s 740 mmHg 82%
    17:00 +9°C° 0.2 mm 7 m/s 740 mmHg 81%
    18:00 +9°C° 0.2 mm 7 m/s 740 mmHg 80%
    19:00 +9°C° 0.2 mm 7 m/s 740 mmHg 79%
    20:00 +9°C° 0.1 mm 7 m/s 740 mmHg 80%
    21:00 +9°C° 0.1 mm 7 m/s 740 mmHg 81%
    22:00 +9°C° 0.1 mm 7 m/s 739 mmHg 82%
    23:00 +9°C° 0.5 mm 8 m/s 739 mmHg 83%
    Mostrar mais